[[{"header":{"parameterUnit":"m.s-1","parameterCategory":1,"la1":30.2992,"la2":30.254,"lo1":-89.0895,"lo2":-89.0443,"dy":0.0025,"dx":0.0025,"nx":19,"ny":19,"refTime":"2026-05-16T21:00:00:Z","depth":0,"parameterNumber":2,"parameterNumberName":"U-component_of_WINDS"},"data":[0,0,0,-4.8324,-4.8324,-4.8324,-4.8324,-4.8354,-4.8355,0,0,0,0,0,0,0,0,0,0,0,-4.834,-4.8341,-4.8323,-4.8324,-4.8324,-4.8324,-4.8354,-4.8355,0,0,0,0,0,0,0,0,0,0,0,-4.834,-4.8341,-4.8342,-4.8324,-4.8324,-4.8324,-4.8354,-4.8344,0,0,0,0,0,0,0,0,0,0,-4.8338,-4.8369,-4.834,-4.8342,-4.8324,-4.8324,-4.8324,-4.8343,-4.8344,-4.8367,0,-4.8389,0,-4.8373,-4.8359,-4.8359,0,0,0,-4.8312,-4.8368,-4.8353,-4.8342,-4.8324,-4.8324,-4.8321,-4.8343,-4.8345,-4.8369,-4.839,-4.839,-4.8373,-4.8359,-4.8359,-4.8524,-4.8526,0,0,-4.8312,-4.8349,-4.8352,-4.8355,-4.8355,-4.8321,-4.8321,-4.8344,-4.8369,-4.839,-4.839,-4.8374,-4.8359,-4.836,-4.8523,-4.8525,0,0,0,-4.832,-4.835,-4.8333,-4.8355,-4.8352,-4.8321,-4.8321,-4.8368,-4.836,-4.839,-4.8374,-4.836,-4.836,-4.8521,-4.8524,-4.8623,0,0,0,-4.8319,-4.8354,-4.8334,-4.8357,-4.8353,-4.836,-4.8346,-4.8358,-4.836,-4.8374,-4.836,-4.8361,-4.852,-4.8523,-4.8617,-4.8664,0,0,0,-4.8334,-4.8356,-4.8362,-4.8359,-4.836,-4.8359,-4.8351,-4.8358,-4.8351,-4.8359,-4.8361,-4.8519,-4.8522,-4.8612,-4.8655,-4.8716,0,0,0,-4.8362,-4.8452,-4.8364,-4.8459,-4.8361,-4.8421,-4.8351,-4.8394,-4.8414,-4.836,-4.852,-4.8523,-4.861,-4.8649,-4.8711,-4.8772,-4.8802,0,0,-4.8497,-4.847,-4.8523,-4.8444,-4.8529,-4.8418,-4.8519,-4.8502,-4.847,-4.8508,-4.8512,-4.8619,-4.8654,-4.8715,-4.8962,-4.8986,0,0,0,-4.8578,-4.8616,-4.8631,-4.865,-4.8639,-4.8633,-4.8597,-4.8591,-4.8621,-4.8497,-4.8658,-4.8678,-4.8712,-4.874,-4.876,-4.8786,-4.8539,-4.8538,-4.8538,-4.8821,-4.8774,-4.8858,-4.8812,-4.8832,-4.8794,-4.8806,-4.8791,-4.8739,-4.8779,-4.8788,-4.8944,-4.8978,-4.8992,-4.902,-4.882,-4.882,-4.8821,-4.8821,-4.9013,-4.9058,-4.8987,-4.9042,-4.8993,-4.904,-4.9008,-4.8969,-4.9006,-4.8932,-4.896,-4.8881,-4.902,-4.9042,-4.8828,-4.8827,-4.8826,-4.8825,-4.8825,-4.9164,-4.9177,-4.9168,-4.9191,-4.9215,-4.9166,-4.9204,-4.9159,-4.9116,-4.9144,-4.9149,-4.9147,-4.9137,-4.915,-4.9151,-4.9151,-4.9152,-4.9152,-4.9152,-4.9323,-4.9309,-4.9346,-4.9342,-4.9348,-4.9351,-4.9316,-4.9321,-4.9316,-4.928,-4.9279,-4.9223,-4.9044,-4.8998,-4.916,-4.9159,-4.9158,-4.9157,-4.9157,-4.9528,-4.9475,-4.9531,-4.9538,-4.953,-4.9556,-4.9498,-4.9514,-4.9512,-4.9532,-4.9471,-4.9347,-4.9316,-4.9299,-4.9261,-4.9482,-4.9482,-4.9482,-4.9482,-4.9654,-4.9634,-4.9681,-4.9694,-4.9702,-4.9656,-4.9723,-4.9697,-4.9662,-4.9658,-4.9621,-4.9567,-4.9552,-4.953,-4.9508,-4.9471,-4.9741,-4.9741,-4.9742,-4.9776,-4.9756,-4.9819,-4.9783,-4.9774,-4.9767,-4.9828,-4.9847,-4.9797,-4.9751,-4.9654,-4.9643,-4.9556,-4.953,-4.9479,-4.9447,-4.9378,0,0]},{"header":{"parameterUnit":"m.s-1","parameterCategory":1,"la1":30.2992,"la2":30.254,"lo1":-89.0895,"lo2":-89.0443,"dy":0.0025,"dx":0.0025,"nx":19,"ny":19,"refTime":"2026-05-16T21:00:00:Z","depth":0,"parameterNumber":3,"parameterNumberName":"V-component_of_WINDS"},"data":[0,0,0,3.2136,3.2138,3.2231,3.2232,3.2324,3.2325,0,0,0,0,0,0,0,0,0,0,0,3.2094,3.2094,3.2136,3.2138,3.2231,3.2232,3.2324,3.2325,0,0,0,0,0,0,0,0,0,0,0,3.2094,3.2094,3.2094,3.2138,3.2231,3.2232,3.2324,3.2263,0,0,0,0,0,0,0,0,0,0,3.2176,3.2124,3.2094,3.2094,3.2139,3.2231,3.2232,3.226,3.2266,3.2271,0,3.2273,0,3.23,3.2329,3.2329,0,0,0,3.2148,3.2118,3.2157,3.2094,3.2139,3.2231,3.2192,3.2264,3.2271,3.2279,3.2274,3.2278,3.2302,3.233,3.233,3.2327,3.2327,0,0,3.2143,3.2103,3.2152,3.2161,3.2147,3.2189,3.2195,3.2269,3.226,3.2275,3.2281,3.2303,3.233,3.2331,3.2328,3.2327,0,0,0,3.2121,3.2098,3.2136,3.2156,3.2175,3.2191,3.2198,3.2257,3.2272,3.2282,3.2304,3.2331,3.2331,3.2328,3.2328,3.2265,0,0,0,3.2119,3.2086,3.2133,3.2109,3.2174,3.2217,3.2184,3.2267,3.2277,3.2304,3.2331,3.2332,3.2329,3.2328,3.2268,3.2242,0,0,0,3.2093,3.2083,3.2092,3.2107,3.2146,3.2217,3.2238,3.227,3.229,3.233,3.2332,3.233,3.2328,3.2271,3.2247,3.2231,0,0,0,3.2053,3.2033,3.209,3.2077,3.2144,3.2178,3.2238,3.2264,3.2291,3.2331,3.2329,3.2328,3.2272,3.225,3.2233,3.221,3.2197,0,0,3.2006,3.2026,3.2022,3.2075,3.2089,3.2167,3.2172,3.2233,3.2273,3.2306,3.2307,3.2267,3.2247,3.2231,3.2135,3.2124,0,0,0,3.1993,3.1989,3.2002,3.2027,3.2075,3.2114,3.2179,3.2202,3.2233,3.2283,3.2258,3.2247,3.224,3.223,3.2221,3.2217,3.2322,3.2322,3.2322,3.1867,3.1921,3.1918,3.1983,3.2005,3.2075,3.2098,3.214,3.2186,3.2179,3.219,3.2125,3.2112,3.2106,3.2101,3.2181,3.2181,3.2181,3.2181,3.1803,3.1807,3.187,3.189,3.1946,3.1962,3.2027,3.2059,3.2081,3.2121,3.2117,3.2156,3.2092,3.2091,3.2177,3.2177,3.2178,3.2178,3.2179,3.1728,3.1739,3.1769,3.1811,3.1837,3.1903,3.1922,3.1972,3.2019,3.2015,3.2032,3.2033,3.2041,3.2019,3.2019,3.2019,3.2019,3.2019,3.2018,3.1637,3.1673,3.1684,3.1735,3.1758,3.1794,3.1863,3.1887,3.1925,3.196,3.1961,3.2007,3.2076,3.2093,3.2015,3.2016,3.2016,3.2017,3.2017,3.1554,3.1581,3.1598,3.1621,3.1685,3.1708,3.1772,3.1815,3.1842,3.1849,3.1897,3.194,3.1964,3.1972,3.1986,3.1886,3.1886,3.1886,3.1886,3.149,3.1508,3.1537,3.1571,3.161,3.167,3.1687,3.174,3.1799,3.1818,3.184,3.1863,3.1868,3.1889,3.1899,3.1913,3.1796,3.1796,3.1796,3.1442,3.1466,3.1471,3.1532,3.1585,3.1629,3.1646,3.1681,3.1754,3.1793,3.1835,3.1838,3.1876,3.1885,3.1926,3.1939,3.1966,0,0]}]]